Preview of NWS' New Version of Forecast
This preview is not operational and should not be used for support decisions.

Regional Weather Roundup (RWR)

Issued by National Weather Service (NWS)

                            
000
ASUS43 KDTX 231810
RWRMI 
MICHIGAN HOURLY REGIONAL WEATHER ROUNDUP
NATIONAL WEATHER SERVICE DETROIT/PONTIAC MI
100 PM EST SAT FEB 23 2019

NOTE: "FAIR" INDICATES FEW OR NO CLOUDS BELOW 12,000 FEET WITH NO
SIGNIFICANT WEATHER AND/OR OBSTRUCTION TO VISIBILITY.

MIZ047>049-052>055-059>063-066>070-074>076-081>083-231900-
SOUTHEAST LOWER MICHIGAN
  
CITY           SKY/WX    TMP DP  RH WIND       PRES   REMARKS
ADRIAN         CLOUDY    36  27  69 E10       30.04F WCI  28          
6HR MIN TEMP:  30; 6HR MAX TEMP:  36;                                

ALMA           CLOUDY    35  26  69 NE15      30.05F WCI  25          
6HR MIN TEMP:  29; 6HR MAX TEMP:  35;                                

ANN ARBOR      CLOUDY    38  27  64 E10       30.05F WCI  31          
BAD AXE        CLOUDY    33  27  77 E12G18    30.12F WCI  25          
6HR MIN TEMP:  28; 6HR MAX TEMP:  33;                                

CARO           CLOUDY    35  27  71 E13       30.09F WCI  27          
DETROIT CITY   FAIR      37  27  67 E14       30.10F WCI  28          
6HR MIN TEMP:  27; 6HR MAX TEMP:  37;                                

DETROIT        CLOUDY    37  25  61 E9        30.08F WCI  30          
6HR MIN TEMP:  30; 6HR MAX TEMP:  38;                                

FLINT          CLOUDY    38  25  59 E10       30.08F WCI  31          
6HR MIN TEMP:  27; 6HR MAX TEMP:  39;                                

GROSSE ILE     CLOUDY    37  29  71 E10       30.07F WCI  30          
6HR MIN TEMP:  28; 6HR MAX TEMP:  38;                                

HILLSDALE      CLOUDY    40  28  60 E13G18    29.98F WCI  33          
6HR MIN TEMP:  31; 6HR MAX TEMP:  40;                                

HOWELL         CLOUDY    38  25  59 E12       30.03F WCI  30          
6HR MIN TEMP:  30; 6HR MAX TEMP:  38;                                


CITY           SKY/WX    TMP DP  RH WIND       PRES   REMARKS
JACKSON        CLOUDY    40  28  62 E10       30.00F WCI  33          
6HR MIN TEMP:  30; 6HR MAX TEMP:  40;                                

LAMBERTVILLE   CLOUDY    35  29  80 E9G17     30.05F WCI  28          
6HR MIN TEMP:  31; 6HR MAX TEMP:  35;                                

LANSING        FAIR      39  27  62 E14       30.02F WCI  31          
6HR MIN TEMP:  29; 6HR MAX TEMP:  39;                                

LAPEER         CLOUDY    37  24  60 E5        30.10F WCI  33          
6HR MIN TEMP:  28; 6HR MAX TEMP:  37;                                

MASON          CLOUDY    40  26  56 E8        30.02F WCI  35          
6HR MIN TEMP:  30; 6HR MAX TEMP:  40;                                

MONROE         CLOUDY    37  28  71 E14G21    30.06F WCI  28          
6HR MIN TEMP:  30; 6HR MAX TEMP:  37;                                

MT. CLEMENS    PTSUNNY   37  30  76 E10       30.10F WCI  30          
6HR MIN TEMP:  27; 6HR MAX TEMP:  37;                                

PONTIAC        CLOUDY    35  25  66 E10       30.05F WCI  27          
6HR MIN TEMP:  28; 6HR MAX TEMP:  35;                                

PORT HOPE        N/A     31  27  85 E14       30.14F WCI  21          
6HR MIN TEMP:  30; 6HR MAX TEMP:  31;                                

PORT HURON     FAIR      39  27  60 SE12      30.13F WCI  32          
TRI CITIES     CLOUDY    34  26  72 E13       30.10F WCI  25          
6HR MIN TEMP:  29; 6HR MAX TEMP:  35;                                

MIDLAND        CLOUDY    33  27  77 E15       30.09F WCI  23          
6HR MIN TEMP:  28; 6HR MAX TEMP:  33;                                

TROY           CLOUDY    37  22  55 E12G17    30.10F WCI  29          
SAGINAW HB     CLOUDY    34  28  80 NE7       30.09F WCI  28          
$$
MIZ043>046-050>051-056>058-064>065-071>073-077>080-231900-
SOUTHWEST LOWER MICHIGAN
  
CITY           SKY/WX    TMP DP  RH WIND       PRES   REMARKS
BATTLE CREEK   CLOUDY    43  27  53 SE14G22   29.96F                  
6HR MIN TEMP:  31; 6HR MAX TEMP:  42;                                

BENTON HARBOR  CLOUDY    45  31  58 SE12G23   29.91F                  
6HR MIN TEMP:  35; 6HR MAX TEMP:  45;                                

BIG RAPIDS     CLOUDY    34  24  67 E9        30.03F WCI  27          
6HR MIN TEMP:  29; 6HR MAX TEMP:  34;                                

COLDWATER      CLOUDY    43  30  60 SE15      29.97F                  
6HR MIN TEMP:  33; 6HR MAX TEMP:  44;                                

FREMONT        FLURRIES  35  25  65 E9        30.02F WCI  28          
6HR MIN TEMP:  32; 6HR MAX TEMP:  35;                                

HOLLAND        CLOUDY    39  26  59 E10       29.94F WCI  32          
6HR MIN TEMP:  31; 6HR MAX TEMP:  39; 6HR PCP: TRACE;                

GRAND RAPIDS   CLOUDY    37  25  61 E21       29.98F WCI  26          
6HR MIN TEMP:  30; 6HR MAX TEMP:  37;                                

IONIA          PTSUNNY   36  24  64 E12       30.02F WCI  27          
6HR MIN TEMP:  28; 6HR MAX TEMP:  36;                                

KALAMAZOO      PTSUNNY   43  27  53 SE12      29.96F                  
6HR MIN TEMP:  32; 6HR MAX TEMP:  43;                                

LUDINGTON      CLOUDY    36  22  57 E8G17     30.03F WCI  30          
6HR MIN TEMP:  31; 6HR MAX TEMP:  36;                                

MARSHALL       CLOUDY    43  29  58 E13       29.97F                  
6HR MIN TEMP:  31; 6HR MAX TEMP:  43;                                

MOUNT PLEASANT CLOUDY    34  23  64 E14       30.05F WCI  25          
6HR MIN TEMP:  29; 6HR MAX TEMP:  34;                                

MUSKEGON       RAIN      34  26  72 NE9       30.00F WCI  27          
6HR MIN TEMP:  32; 6HR MAX TEMP:  36; 6HR PCP:  0.06;                

SOUTH HAVEN    CLOUDY    43  27  53 SE9G21    29.92F                  
$$
MIZ016>042-231900-
NORTHERN LOWER MICHIGAN
  
CITY           SKY/WX    TMP DP  RH WIND       PRES   REMARKS
ALPENA         CLOUDY    32  25  75 E15G25    30.18F WCI  22          
6HR MIN TEMP:  18; 6HR MAX TEMP:  33;                                

BEAVER ISLAND  CLOUDY    31  24  75 E13       30.11F WCI  22          
6HR MIN TEMP:  27; 6HR MAX TEMP:  32;                                

BELLAIRE       CLOUDY    35  21  56 E3G16     30.10F                  
6HR MIN TEMP:  26; 6HR MAX TEMP:  35;                                

CADILLAC       CLOUDY    32  19  59 E15       30.05F WCI  22          
CHARLEVOIX     PTSUNNY   36  22  57 E14       30.14F WCI  27          
6HR MIN TEMP:  28; 6HR MAX TEMP:  36;                                

FRANKFORT      CLOUDY    35  23  60 E10       30.05F WCI  27          
GAYLORD        CLOUDY    31  21  66 E8G18     30.10F WCI  23          
6HR MIN TEMP:  25; 6HR MAX TEMP:  31;                                

GRAYLING       CLOUDY    32  22  66 E13       30.08F WCI  22          
6HR MIN TEMP:  24; 6HR MAX TEMP:  32;                                

HARBOR SPRINGS PTSUNNY   34  24  66 E9        30.13F WCI  27          
HOUGHTON LAKE  CLOUDY    32  22  66 E15       30.08F WCI  22          
6HR MIN TEMP:  26; 6HR MAX TEMP:  32;                                

MANISTEE       CLOUDY    35  22  58 E9        30.04F WCI  28          
OSCODA         CLOUDY    31  26  81 E9        30.15F WCI  23          
6HR MIN TEMP:  29; 6HR MAX TEMP:  32;                                

PELLSTON       PTSUNNY   33  25  72 SE10      30.13F WCI  25          
6HR MIN TEMP:  22; 6HR MAX TEMP:  33; 6HR PCP: TRACE;                

ROGERS CITY    CLOUDY    32  26  77 SE10G16   30.18F WCI  24          
TRAVERSE CITY  CLOUDY    36  22  56 E15G23    30.07F WCI  27          
6HR MIN TEMP:  29; 6HR MAX TEMP:  36;                                

$$
MIZ007>008-015-231900-
EASTERN UPPER MICHIGAN
  
CITY           SKY/WX    TMP DP  RH WIND       PRES   REMARKS
KINROSS        SNOW      29  27  92 SE13      30.16F VSB 1/2 WCI  19  
6HR MIN TEMP:  21; 6HR MAX TEMP:  29; 6HR PCP: TRACE;                

MACKINAC ISLAN CLOUDY    32  28  86 E14G21    30.15F WCI  22          
6HR MIN TEMP:  28; 6HR MAX TEMP:  32;                                

NEWBERRY       LGT SNOW  28  26  92 MISG      30.14F VSB 1            
6HR MIN TEMP:  22; 6HR MAX TEMP:  28; 6HR PCP:  0.01;                

S. S. MARIE    LGT SNOW  30  26  85 E8G17     30.17F FOG     WCI  22  
6HR MIN TEMP:  23; 6HR MAX TEMP:  30; 6HR PCP:  0.01;                

MUNISING         N/A     29  26  89 S8        30.11F WCI  21          
6HR MIN TEMP:  24; 6HR MAX TEMP:  29; 6HR PCP:  0.24;                

$$
MIZ004>006-011>014-085-231900-
CENTRAL UPPER MICHIGAN
  
CITY           SKY/WX    TMP DP  RH WIND       PRES   REMARKS
MANISTIQUE     CLOUDY    30  24  79 E7        30.12F WCI  23          
6HR MIN TEMP:  26; 6HR MAX TEMP:  30;                                

ESCANABA       CLOUDY    31  27  85 E15       30.06F WCI  20          
6HR MIN TEMP:  23; 6HR MAX TEMP:  32; 6HR PCP: TRACE;                

MENOMINEE      CLOUDY    33  25  72 E14       30.02F WCI  23          
6HR MIN TEMP:  25; 6HR MAX TEMP:  33; 6HR PCP: TRACE;                

SAWYER-GWINN   SNOW      28  27  93 SE6       30.05F VSB 1/2 WCI  22  
$$
MIZ001>003-009>011-084-231900-
WESTERN UPPER MICHIGAN
  
CITY           SKY/WX    TMP DP  RH WIND       PRES   REMARKS
IRON MOUNTAIN  CLOUDY    29  26  89 SE9G17    29.98F FOG     WCI  20  
6HR MIN TEMP:  23; 6HR MAX TEMP:  29; 6HR PCP:  0.12;                

HOUGHTON       LGT SNOW  29  25  85 SE14      30.00F VSB 3/4 WCI  18  
6HR MIN TEMP:  27; 6HR MAX TEMP:  29; 6HR PCP: TRACE;                

COPPER HARBOR    N/A     30  26  85 VRB6G21   30.06F WCI  24          
6HR MIN TEMP:  28; 6HR MAX TEMP:  31; 6HR PCP:  0.02;                

IRONWOOD       CLOUDY    30  25  81 SE7       29.95F WCI  23          
6HR MIN TEMP:  27; 6HR MAX TEMP:  30;                                

$$

ABBREVIATIONS USED IN REMARKS
   TC - TEMPERATURE IN CELSIUS
  WCI - WIND CHILL INDEX
   HX - HEAT INDEX
  VSB - VISIBILITY